Regional Weather Roundup
Issued by NWS Jackson, KY

Home | Current Version | Previous Version | Graphics & Text | Print | Product List | Glossary On
Versions: 1 2 3 4 5 6 7 8 9 10 11 12 13 14 15 16 17 18 19 20 21 22 23 24 25 26 27
000
ASUS43 KJKL 240210
RWRJKL

EAST KENTUCKY HOURLY WEATHER ROUNDUP
NATIONAL WEATHER SERVICE JACKSON KY
1000 PM EDT MON APR 23 2018

NOTE: "FAIR" INDICATES FEW OR NO CLOUDS BELOW 12,000 FEET WITH
NO SIGNIFICANT WEATHER AND/OR OBSTRUCTIONS TO VISIBILITY.

* THESE REPORTS ARE NOT UNDER NWS QUALITY CONTROL AND MAY NOT
  REPORT WEATHER SUCH AS PRECIPITATION AND FOG.

KYZ079-080-083-085-087-088-110-112-115-119-120-240300
...EASTERN KENTUCKY...

CITY           SKY/WX    TMP DP  RH WIND       PRES   REMARKS
JACKSON          N/A     57  46  66 VRB3      30.03R
LONDON         MOCLDY    55  52  89 E3        29.97F
SOMERSET*      CLOUDY    54  54 100 CALM      29.97S
MONTICELLO*    RAIN      55  54  96 N12       29.98R
WILLIAMSBURG*  CLOUDY    57  52  82 E9G20     29.96S
MIDDLESBORO*   RAIN      56  52  88 CALM      30.00F
HARLAN APT*    CLOUDY    56  49  77 E3        30.02S
PIKE CO APT*     N/A     56  44  64 SE14G20   30.07S
BIG SANDY APT* MOCLDY    57  46  66 SE8G16    30.08R
MOREHEAD APT*  LGT RAIN  54  48  82 E8G17     30.06R
ASHLAND*       CLOUDY    54  48  80 E9        30.11R
$$

KYZ035-036-041-042-044-050-067-078-099-240300
...CENTRAL KENTUCKY...

CITY           SKY/WX    TMP DP  RH WIND       PRES   REMARKS
MT STERLING*   DRIZZLE   54  52  94 E9        30.04S
FLEMING/MASON* DRIZZLE   52  51  95 E13       30.07R
DANVILLE*      RAIN      52  52 100 NE3       30.00F
LEXINGTON      CLOUDY    54  51  90 NE10      30.01S
FRANKFORT      LGT RAIN  55  50  83 NE6       30.00F
LOUISVILLE     LGT RAIN  58  52  80 E10       29.99S
GLASGOW*       MOCLDY    55  53  94 E7        29.95S
BOWLING GREEN  CLOUDY    57  55  93 NE5       29.94S
$$

KYZ091>093-OHZ055-061-077-WVZ005-015-034-035-042-240300
...SOUTHERN OHIO/WEST VIRGINIA...

CITY           SKY/WX    TMP DP  RH WIND       PRES   REMARKS
COVINGTON      CLOUDY    53  49  86 E13       30.05F
COLUMBUS       LGT RAIN  53  47  79 E10       30.17S
DAYTON         LGT RAIN  51  50  96 E15       30.11F
WILMINGTON     LGT RAIN  51  49  92 E16G24    30.10S
HUNTINGTON       N/A     53  47  79 E8        30.09S
CHARLESTON     LGT RAIN  53  49  86 E9        30.12F
PINEVILLE*     CLOUDY    55  46  73 MISG      30.18F
BECKLEY        CLOUDY    50  44  80 SE15G22   30.15F
BLUEFIELD      LGT RAIN  47  44  90 SE10G22   30.17S
LOGAN CO APT*  CLOUDY    55  46  71 SE14G26   30.09F
$$

VAZ002-007-008-TNZ017-027-036-066-071-240300
...SOUTHWEST VIRGINIA/EAST TENNESSEE...

CITY           SKY/WX    TMP DP  RH WIND       PRES   REMARKS
WISE*            N/A     52  45  76 SE5       30.09S
JONESVILLE*    CLOUDY    57  48  72 NE7       30.04F
ABINGDON*      CLOUDY    55  48  78 SE16      30.09S
BRISTOL        MOCLDY    59  47  64 E15G21    30.04F
MORRISTOWN*    CLOUDY    57  54  88 E8        29.97F
SEVIERVILLE*   PTCLDY    61  50  67 VRB7G14   29.93F
KNOXVILLE      LGT RAIN  58  55  90 NE13      29.90F
LAFOLLETTE*    CLOUDY    55  55 100 CALM      30.00S
OAK RIDGE      CLOUDY    57  56  96 VRB3      29.94F
CROSSVILLE     HVY RAIN  53  52  96 W3        29.95R FOG
NASHVILLE      LGT RAIN  59  55  87 NE5       29.92R
$$

...KEY TO REMARKS...
VSB - VISIBILITY IN MILES
WCI - WIND CHILL INDEX
HX  - HEAT INDEX

$$




USA.gov is the U.S. government's official web portal to all federal, state and local government web resources and services.